TimeEST,TemperatureF,Dew PointF,Humidity,Sea Level PressureIn,VisibilityMPH,Wind Direction,Wind SpeedMPH,Gust SpeedMPH,PrecipitationIn,Events,Conditions,WindDirDegrees,DateUTC
12:15 AM,-5.3,-10.1,80,30.34,10.0,SSE,3.5,-,N/A,Snow,Light Snow,160,2014-02-08 05:15:00
12:35 AM,-4.9,-9.9,79,30.35,7.0,Calm,Calm,-,N/A,Snow,Light Snow,0,2014-02-08 05:35:00
12:55 AM,-4.9,-9.9,79,30.35,5.0,South,3.5,-,N/A,Snow,Light Snow,170,2014-02-08 05:55:00
1:15 AM,-4.9,-9.9,79,30.35,7.0,Calm,Calm,-,N/A,Snow,Light Snow,0,2014-02-08 06:15:00
1:35 AM,-4.5,-9.6,79,30.35,7.0,Calm,Calm,-,N/A,Snow,Light Snow,0,2014-02-08 06:35:00
1:55 AM,-2.6,-8.3,76,30.34,7.0,South,3.5,-,N/A,,Clear,180,2014-02-08 06:55:00
2:15 AM,-1.8,-6.9,79,30.34,7.0,Calm,Calm,-,N/A,Snow,Light Snow,0,2014-02-08 07:15:00
2:35 AM,-1.3,-6.3,79,30.34,4.0,Calm,Calm,-,N/A,Snow,Light Snow,0,2014-02-08 07:35:00
2:55 AM,-0.8,-6.0,79,30.34,5.0,Calm,Calm,-,N/A,Snow,Light Snow,0,2014-02-08 07:55:00
3:15 AM,-0.8,-6.2,78,30.34,5.0,Calm,Calm,-,N/A,Snow,Light Snow,0,2014-02-08 08:15:00
3:35 AM,-1.5,-6.7,78,30.33,10.0,Calm,Calm,-,N/A,,Scattered Clouds,0,2014-02-08 08:35:00
3:55 AM,-2.6,-8.0,78,30.33,10.0,Calm,Calm,-,N/A,,Mostly Cloudy,0,2014-02-08 08:55:00
4:15 AM,-1.8,-7.1,78,30.32,10.0,Calm,Calm,-,N/A,,Overcast,0,2014-02-08 09:15:00
4:35 AM,-0.2,-5.3,79,30.31,5.0,Calm,Calm,-,N/A,,Haze,0,2014-02-08 09:35:00
4:55 AM,1.2,-4.2,78,30.31,5.0,Calm,Calm,-,N/A,Snow,Light Snow,0,2014-02-08 09:55:00
5:15 AM,1.4,-4.2,77,30.31,5.0,Calm,Calm,-,N/A,Snow,Light Snow,0,2014-02-08 10:15:00
5:35 AM,0.7,-4.4,79,30.31,10.0,Calm,Calm,-,N/A,,Scattered Clouds,0,2014-02-08 10:35:00
5:55 AM,0.5,-4.2,81,30.31,5.0,Calm,Calm,-,N/A,,Haze,0,2014-02-08 10:55:00
6:15 AM,1.8,-3.5,79,30.31,10.0,Calm,Calm,-,N/A,,Overcast,0,2014-02-08 11:15:00
6:35 AM,2.5,-2.9,78,30.31,5.0,Calm,Calm,-,N/A,,Haze,0,2014-02-08 11:35:00
6:55 AM,3.2,-2.0,79,30.31,2.5,Calm,Calm,-,N/A,Snow,Light Snow,0,2014-02-08 11:55:00
7:15 AM,3.7,-1.5,79,30.30,2.0,Calm,Calm,-,N/A,Snow,Light Snow,0,2014-02-08 12:15:00
7:35 AM,4.1,-0.8,80,30.30,3.0,ESE,3.5,-,N/A,Snow,Light Snow,120,2014-02-08 12:35:00
7:55 AM,4.1,-0.6,81,30.30,3.0,ESE,4.6,-,N/A,Snow,Light Snow,120,2014-02-08 12:55:00
8:15 AM,4.6,0.1,82,30.30,5.0,Calm,Calm,-,N/A,,Haze,0,2014-02-08 13:15:00
8:35 AM,5.2,0.5,81,30.30,4.0,Calm,Calm,-,N/A,,Haze,0,2014-02-08 13:35:00
8:55 AM,5.5,0.7,80,30.29,5.0,ESE,3.5,-,N/A,Snow,Light Snow,120,2014-02-08 13:55:00
9:15 AM,6.4,1.4,80,30.30,5.0,SE,3.5,-,N/A,Snow,Light Snow,130,2014-02-08 14:15:00
9:35 AM,7.0,2.1,80,30.30,3.0,ESE,3.5,-,N/A,Snow,Light Snow,120,2014-02-08 14:35:00
9:55 AM,8.2,3.4,81,30.30,3.0,SSE,3.5,-,N/A,Snow,Light Snow,150,2014-02-08 14:55:00
10:15 AM,9.5,4.5,80,30.30,1.5,SE,3.5,-,N/A,Snow,Light Snow,140,2014-02-08 15:15:00
10:35 AM,10.4,5.0,79,30.29,1.5,SE,5.8,-,N/A,Snow,Light Snow,130,2014-02-08 15:35:00
10:55 AM,10.8,5.5,79,30.28,2.0,SE,6.9,-,N/A,Snow,Light Snow,140,2014-02-08 15:55:00
11:15 AM,11.8,6.4,79,30.29,1.8,SE,4.6,-,N/A,Snow,Light Snow,130,2014-02-08 16:15:00
11:35 AM,12.9,7.2,78,30.28,1.8,ESE,5.8,-,N/A,Snow,Light Snow,120,2014-02-08 16:35:00
11:55 AM,13.6,7.7,77,30.27,2.5,SE,5.8,-,N/A,Snow,Light Snow,140,2014-02-08 16:55:00
12:15 PM,14.0,7.7,76,30.27,5.0,SE,5.8,-,N/A,Snow,Light Snow,140,2014-02-08 17:15:00
12:35 PM,14.4,7.9,75,30.26,3.0,South,8.1,-,N/A,Snow,Light Snow,170,2014-02-08 17:35:00
12:55 PM,14.5,8.1,75,30.25,7.0,SSE,6.9,-,N/A,Snow,Light Snow,150,2014-02-08 17:55:00
1:15 PM,14.9,8.2,75,30.22,7.0,SE,5.8,-,N/A,Snow,Light Snow,140,2014-02-08 18:15:00
1:35 PM,15.4,8.8,75,30.21,4.0,SSE,5.8,-,N/A,Snow,Light Snow,150,2014-02-08 18:35:00
1:55 PM,15.8,9.0,74,30.20,5.0,SSE,3.5,-,N/A,Snow,Light Snow,160,2014-02-08 18:55:00
2:15 PM,16.0,9.3,75,30.18,7.0,SE,4.6,-,N/A,,Overcast,130,2014-02-08 19:15:00
2:35 PM,16.3,9.5,74,30.18,10.0,SE,4.6,-,N/A,,Overcast,140,2014-02-08 19:35:00
2:55 PM,16.7,10.0,75,30.18,10.0,SE,3.5,-,N/A,,Overcast,140,2014-02-08 19:55:00
3:15 PM,17.1,10.4,75,30.17,10.0,ESE,4.6,-,N/A,,Overcast,120,2014-02-08 20:15:00
3:35 PM,17.4,10.6,75,30.16,7.0,ESE,4.6,-,N/A,,Overcast,110,2014-02-08 20:35:00
3:55 PM,18.0,11.1,75,30.16,7.0,Calm,Calm,-,N/A,,Overcast,0,2014-02-08 20:55:00
4:15 PM,18.5,11.3,73,30.16,7.0,SE,5.8,-,N/A,,Overcast,140,2014-02-08 21:15:00
4:35 PM,18.5,11.5,74,30.16,10.0,SSE,5.8,-,N/A,,Overcast,160,2014-02-08 21:35:00
4:55 PM,18.9,12.0,75,30.17,3.0,SSE,3.5,-,N/A,Snow,Light Snow,160,2014-02-08 21:55:00
5:15 PM,19.0,12.7,76,30.16,3.0,South,3.5,-,N/A,Snow,Light Snow,170,2014-02-08 22:15:00
5:35 PM,18.9,13.5,79,30.16,1.8,South,3.5,-,N/A,,Overcast,180,2014-02-08 22:35:00
5:55 PM,18.5,14.0,83,30.17,2.5,South,3.5,-,N/A,,Overcast,170,2014-02-08 22:55:00
6:15 PM,18.5,14.4,84,30.17,4.0,Calm,Calm,-,N/A,Snow,Light Snow,0,2014-02-08 23:15:00
6:35 PM,18.5,14.5,85,30.16,1.2,Calm,Calm,-,N/A,Snow,Light Snow,0,2014-02-08 23:35:00
6:55 PM,18.3,15.1,87,30.16,2.0,ESE,3.5,-,N/A,Snow,Light Snow,120,2014-02-08 23:55:00
7:15 PM,17.8,15.1,89,30.16,3.0,Calm,Calm,-,N/A,Snow,Light Snow,0,2014-02-09 00:15:00
7:35 PM,18.0,15.4,90,30.16,3.0,SE,3.5,-,N/A,Snow,Light Snow,140,2014-02-09 00:35:00
7:55 PM,18.1,15.6,90,30.16,10.0,SE,4.6,-,N/A,,Overcast,140,2014-02-09 00:55:00
8:15 PM,18.1,15.6,90,30.16,4.0,SSE,3.5,-,N/A,Snow,Light Snow,150,2014-02-09 01:15:00
8:35 PM,18.3,15.6,89,30.15,7.0,Calm,Calm,-,N/A,Snow,Light Snow,0,2014-02-09 01:35:00
8:55 PM,18.5,15.6,89,30.15,10.0,SE,3.5,-,N/A,,Overcast,130,2014-02-09 01:55:00
9:15 PM,18.5,15.8,89,30.14,10.0,SE,3.5,-,N/A,,Overcast,140,2014-02-09 02:15:00
9:35 PM,18.5,15.8,89,30.14,10.0,Calm,Calm,-,N/A,,Overcast,0,2014-02-09 02:35:00
9:55 PM,18.5,16.2,91,30.13,7.0,Calm,Calm,-,N/A,,Overcast,0,2014-02-09 02:55:00
10:15 PM,18.7,16.5,91,30.14,10.0,Calm,Calm,-,N/A,,Overcast,0,2014-02-09 03:15:00
10:35 PM,18.9,16.5,91,30.13,7.0,Calm,Calm,-,N/A,,Overcast,0,2014-02-09 03:35:00
10:55 PM,19.0,16.5,90,30.13,4.0,Calm,Calm,-,N/A,Snow,Light Snow,0,2014-02-09 03:55:00
11:15 PM,19.2,16.7,90,30.13,4.0,Calm,Calm,-,N/A,Snow,Light Snow,0,2014-02-09 04:15:00
11:35 PM,19.2,16.7,90,30.13,5.0,Calm,Calm,-,N/A,Snow,Light Snow,0,2014-02-09 04:35:00
11:55 PM,19.2,17.1,91,30.13,5.0,Calm,Calm,-,N/A,Snow,Light Snow,0,2014-02-09 04:55:00